DW8004 Weather Reports


time (UTC)temp
C
wind
direction
speed
KPH
gust
KPH
rain 1hr
cm
rain 24hr
cm
rain mn
cm
humidity
%
barometer
mb
20260906120056 12 33 0.0 0.0 0.03 0.23 0.10 97 1014.8
20260906114549 12 47 0.0 0.0 0.00 0.20 0.08 97 1014.7
20260906113046 12 47 0.0 0.0 0.03 0.20 0.08 97 1014.4
20260906111546 12 47 0.0 0.0 0.03 0.20 0.08 97 1014.4
20260906110009 12 47 0.0 0.0 0.03 0.20 0.08 97 1014.1
20260906104635 12 47 0.0 0.0 0.05 0.20 0.08 97 1014.0
20260906103050 12 31 0.0 0.0 0.03 0.18 0.05 97 1013.8
20260906101527 12 31 0.0 0.0 0.03 0.18 0.05 97 1013.5
20260906100019 12 31 0.0 0.0 0.03 0.18 0.05 97 1013.4
20260906094617 12 31 0.0 0.0 0.00 0.15 0.03 97 1013.3
20260906093039 12 31 0.0 0.0 0.00 0.15 0.03 97 1013.2
20260906091631 12 31 0.0 0.0 0.00 0.15 0.03 97 1013.1
20260906090100 12 31 0.0 0.0 0.00 0.15 0.03 97 1013.0
20260906084544 12 31 0.0 0.0 0.00 0.15 0.03 98 1012.9
20260906083140 12 31 0.0 0.0 0.03 0.15 0.03 97 1012.9
20260906081556 12 31 0.0 0.0 0.03 0.15 0.03 97 1012.8
20260906080043 12 31 0.0 0.0 0.03 0.15 0.03 97 1012.8
20260906074534 12 31 0.0 0.0 0.03 0.15 0.03 97 1012.9
20260906073107 12 31 0.0 0.0 0.00 0.13 0.00 97 1013.0
20260906071549 12 31 0.0 0.0 0.00 0.13 0.00 97 1012.9
20260906070042 12 31 0.0 0.0 0.00 0.13 0.00 97 1012.7
20260906064526 12 31 0.0 0.0 0.00 0.13 0.00 97 1012.8
20260906063058 12 31 0.0 0.0 0.00 0.13 0.00 97 1013.0
20260906061552 12 31 0.0 0.0 0.00 0.13 0.00 97 1013.0
20260906060036 13 31 0.0 0.0 0.00 0.13 0.00 97 1013.1
20260906054604 13 31 0.0 0.0 0.00 0.13 0.00 96 1013.1
20260906053047 13 31 0.0 0.0 0.00 0.13 0.00 96 1013.1
20260906051527 13 31 0.0 0.0 0.00 0.13 0.00 97 1013.1
20260906050130 13 31 0.0 0.0 0.00 0.13 0.00 96 1013.1
20260906044544 13 31 0.0 0.0 0.08 0.13 0.00 96 1013.0
20260906043021 13 31 0.0 0.0 0.08 0.13 0.00 96 1013.1
20260906041506 13 33 0.0 0.0 0.10 0.13 0.00 96 1013.0
20260906040030 13 33 0.0 0.0 0.10 0.13 0.00 96 1012.9
20260906034542 13 31 0.0 0.0 0.03 0.05 0.05 96 1012.9
20260906033040 14 27 0.0 0.0 0.00 0.03 0.05 96 1012.6
20260906031549 14 107 0.0 0.0 0.00 0.03 0.03 96 1012.4
20260906030033 14 107 0.0 0.0 0.00 0.03 0.03 96 1012.3
20260906024535 13 107 0.0 0.0 0.00 0.03 0.03 96 1012.2
20260906023137 13 107 0.0 0.0 0.00 0.03 0.03 96 1012.3
20260906021604 13 107 0.0 0.0 0.00 0.03 0.03 96 1012.2
20260906020059 13 107 0.0 0.0 0.00 0.03 0.03 96 1012.2
20260906014552 13 107 0.0 0.0 0.00 0.03 0.03 95 1012.0
20260906013015 14 107 0.0 0.0 0.00 0.03 0.03 95 1011.9
20260906011559 14 107 0.0 0.0 0.00 0.03 0.03 95 1012.1
20260906010034 14 107 0.0 0.0 0.00 0.03 0.03 95 1012.1
20260906004508 15 107 0.0 0.0 0.00 0.03 0.03 95 1012.0
20260906003011 15 107 0.0 0.0 0.00 0.03 0.03 95 1011.8
20260906001619 15 107 0.0 0.0 0.00 0.03 0.03 95 1011.7
20260906000045 15 107 0.0 0.0 0.00 0.03 0.03 94 1011.6
20260905234532 16 107 0.0 0.0 0.00 0.03 0.03 94 1011.4
20260905233114 16 107 0.0 0.0 0.00 0.03 0.03 94 1011.3
20260905231555 16 107 0.0 0.0 0.00 0.03 0.03 93 1011.2
20260905230050 16 107 0.0 0.0 0.00 0.03 0.03 93 1011.0
20260905224600 17 107 0.0 0.0 0.00 0.03 0.03 93 1011.0
20260905223030 17 107 0.0 0.0 0.00 0.03 0.03 93 1010.9
20260905221539 17 107 0.0 0.0 0.00 0.03 0.03 93 1010.9
20260905220110 17 107 0.0 0.0 0.00 0.03 0.03 93 1010.8
20260905214539 17 107 0.0 0.0 0.00 0.03 0.03 92 1010.7
20260905213005 17 107 0.0 0.0 0.03 0.03 0.03 92 1010.5
20260905211550 17 107 0.0 0.0 0.03 0.03 0.03 91 1010.4
20260905210109 17 107 0.0 0.0 0.03 0.03 0.03 91 1010.3
20260905204548 17 107 0.0 0.0 0.03 0.03 0.03 86 1010.3
20260905203058 18 17 0.0 0.0 0.00 0.00 0.00 82 1010.2
20260905201540 17 304 0.0 0.0 0.00 0.00 0.00 85 1010.0
20260905200021 17 304 0.0 0.0 0.00 0.00 0.00 87 1010.0
20260905194612 18 304 0.0 0.0 0.00 0.00 0.00 84 1009.9
20260905193040 18 224 0.0 0.0 0.00 0.00 0.00 78 1010.0
20260905191513 19 223 0.0 0.0 0.00 0.00 0.00 77 1009.9
20260905190009 19 338 0.0 0.0 0.00 0.00 0.00 77 1009.8
20260905184536 19 338 0.0 0.0 0.00 0.00 0.00 75 1010.0
20260905183004 19 234 0.0 0.0 0.00 0.00 0.00 76 1009.9
20260905181543 19 234 0.0 0.0 0.00 0.00 0.00 74 1009.9
20260905180010 19 221 0.0 0.0 0.00 0.00 0.00 73 1009.9
20260905174601 19 185 0.0 0.0 0.00 0.00 0.00 75 1009.9
20260905173032 18 238 0.0 0.0 0.00 0.00 0.00 76 1009.9
20260905171607 18 215 0.0 0.0 0.00 0.00 0.00 75 1009.8
20260905170058 18 59 0.0 0.0 0.00 0.00 0.00 74 1009.8
20260905164525 18 138 0.0 0.0 0.00 0.00 0.00 75 1009.8
20260905163010 18 115 0.0 0.0 0.00 0.00 0.00 74 1009.9
20260905161554 19 204 0.0 0.0 0.00 0.00 0.00 72 1009.9
20260905160053 19 134 0.0 0.0 0.00 0.00 0.00 73 1009.9
20260905154550 18 215 0.0 0.0 0.00 0.00 0.00 76 1009.8
20260905153022 18 228 0.0 0.0 0.00 0.00 0.00 74 1010.0
20260905151551 18 35 0.0 0.0 0.00 0.00 0.00 78 1009.9
20260905150034 18 141 0.0 0.0 0.00 0.00 0.00 81 1010.1
20260905144554 18 38 0.0 0.0 0.00 0.00 0.00 78 1010.1
20260905143024 18 188 0.0 0.0 0.00 0.00 0.00 80 1010.0
20260905141511 17 142 0.0 0.0 0.00 0.00 0.00 81 1010.2
20260905134551 16 217 0.0 0.0 0.00 0.00 0.00 85 1010.3
20260905133010 16 190 0.0 0.0 0.00 0.00 0.00 85 1010.4
20260905131611 17 260 0.0 0.0 0.00 0.00 0.00 83 1010.4
20260905130046 17 9 0.0 0.0 0.00 0.00 0.00 83 1010.3
20260905124537 16 157 0.0 0.0 0.00 0.00 0.00 88 1010.2
20260905123009 15 235 0.0 0.0 0.00 0.00 0.00 92 1010.1
20260905121548 15 94 0.0 0.0 0.00 0.00 0.00 95 1010.0